Temperature
25 22 21 22 23 24 25 25 25 26 27 26 25 24 24 23 22 21 21 21 20 20 20 20 20 20 19 19 19 18 18 18 18 18 18 18 18 18 18 18 18 18 17 17
23 22 23 24 25 26 25 25 25 26 27 26 24 24 23 22 22 22 21 20 20 20 20 20 19 19 19 19 18 18 18 18 18 18 18 18 18 18 18 17 17 17 17 17
22 23 25 26 25 25 25 25 25 26 26 25 24 23 22 22 22 22 21 21 20 20 20 20 19 19 19 19 19 18 18 18 18 18 18 18 17 17 17 17 17 17 17 17
23 25 26 26 26 26 25 26 27 27 25 23 24 22 22 21 21 21 21 20 20 20 20 20 19 19 19 19 19 19 19 18 18 18 18 18 18 18 18 18 17 17 17 17
23 25 25 25 26 27 26 27 27 26 24 22 22 22 21 21 21 21 20 20 20 20 20 20 20 20 19 19 19 19 18 18 18 18 18 18 18 18 18 17 17 17 17 17
24 26 26 26 27 27 27 27 25 22 20 21 21 22 21 20 21 21 21 20 20 20 20 20 20 20 19 19 19 18 18 18 18 18 18 18 18 18 18 17 17 17 17 17
24 25 26 27 26 27 26 23 21 22 20 20 20 21 20 21 22 21 21 21 20 21 20 20 19 19 19 19 19 18 18 18 18 18 18 18 18 18 18 18 17 17 17 17
22 23 25 26 26 25 25 22 21 21 21 20 20 21 21 22 22 22 22 21 21 21 21 20 20 20 19 19 19 18 18 18 18 18 18 18 18 18 18 18 17 17 17 17
22 23 26 28 28 26 25 23 21 20 21 20 20 20 21 21 21 21 21 21 21 21 20 20 20 20 19 19 19 19 18 18 18 18 18 18 17 17 17 17 17 17 17 17
22 23 25 27 28 27 26 24 20 20 20 20 21 21 20 21 21 21 20 20 20 20 20 20 20 20 19 19 19 19 18 18 18 18 18 18 17 17 17 17 17 17 17 17
23 22 24 25 26 26 26 25 22 19 19 20 20 20 21 20 20 20 20 21 21 20 20 20 20 20 19 19 19 18 18 18 18 18 18 18 18 17 17 17 17 17 17 17
22 21 21 23 25 26 25 24 21 21 20 19 19 20 22 20 20 20 20 20 21 21 20 20 20 20 19 19 19 19 18 18 18 18 18 18 18 17 17 17 17 17 17 17
22 20 21 22 23 24 24 24 22 20 19 19 19 21 21 19 19 20 20 20 20 21 20 20 20 20 19 19 19 18 18 18 18 18 18 18 17 17 17 17 17 17 17 16
22 20 20 22 22 23 24 24 23 20 19 20 21 21 20 19 19 19 20 21 21 21 20 20 20 20 19 19 19 18 18 18 18 18 17 17 17 17 17 17 16 16 16 16
21 21 22 22 23 24 24 24 24 23 21 21 21 21 20 19 19 19 20 20 20 20 20 20 19 19 19 19 19 18 18 18 18 17 17 17 17 17 17 16 16 16 16 16
19 21 21 22 23 24 24 24 24 23 23 22 22 20 20 19 19 19 19 19 19 19 19 19 19 19 18 19 19 18 18 18 18 17 17 17 17 16 16 16 16 15 15 15
18 19 19 20 21 22 22 23 23 22 22 21 20 19 19 18 18 18 19 19 19 19 19 19 19 19 19 19 19 18 18 18 17 17 17 17 17 16 16 16 16 15 15 15
18 18 16 18 20 21 20 21 22 21 20 19 19 19 19 18 18 18 19 19 18 19 19 19 18 18 18 18 18 18 18 17 17 17 17 16 16 16 16 15 15 15 14 14
17 17 17 17 18 20 21 21 21 19 18 18 18 18 18 18 18 17 18 18 18 18 18 18 18 18 18 18 18 17 17 17 17 16 16 16 16 16 15 15 15 14 14 14
17 16 16 17 19 19 19 20 21 19 17 17 17 17 17 17 16 16 17 17 17 18 18 17 17 17 17 17 17 17 16 16 16 15 15 15 15 15 15 14 14 14 13 13
17 16 16 17 17 17 18 19 20 18 17 17 17 17 17 16 16 16 16 17 17 17 17 17 16 16 16 16 16 16 16 15 15 15 15 15 14 14 14 14 13 13 12 12
16 15 16 15 17 17 17 17 16 16 16 17 17 17 17 16 16 16 16 16 16 16 16 16 16 15 15 15 15 15 14 14 14 14 14 14 13 13 13 13 12 12 12 12
15 15 14 15 15 15 16 16 16 16 16 16 16 16 16 15 15 15 15 15 15 15 15 15 15 14 14 14 15 14 14 14 14 14 13 13 12 12 12 12 11 11 11 11
15 15 14 14 14 14 15 16 16 16 16 16 16 16 15 15 14 14 14 14 14 14 14 14 14 14 13 13 14 14 13 13 13 13 12 12 12 11 11 11 11 11 10 10
14 14 13 13 14 14 14 14 14 15 15 15 15 15 15 14 14 14 13 13 13 13 13 13 13 13 12 12 13 13 12 13 12 12 12 11 11 11 11 10 10 10 10 10
13 13 13 13 13 12 12 13 14 14 14 14 14 13 14 14 13 13 12 12 12 12 12 12 12 12 12 12 12 12 12 12 12 12 11 11 11 11 10 10 9 9 9 9
Wind_Speed
5 3 7 10 10 10 9 11 14 14 11 3 0 2 2 4 6 7 6 7 8 8 6 8 11 12 13 12 12 12 12 11 10 8 6 6 5 4 4 4 7 8 8 9
3 9 13 11 10 11 12 12 13 11 7 1 2 1 0 3 5 8 9 8 8 8 8 9 10 11 12 13 13 12 12 11 10 7 6 5 5 4 4 3 4 8 8 8
11 9 8 11 13 12 14 11 10 8 5 4 3 3 2 2 3 4 5 8 10 12 12 11 12 11 12 14 14 13 11 11 10 9 6 6 5 4 3 3 3 4 7 8
10 13 13 12 14 12 13 14 11 6 1 3 1 2 5 2 0 3 5 7 9 10 10 10 11 11 12 12 12 11 11 11 10 10 9 9 7 6 6 5 4 4 6 7
8 7 10 14 17 14 12 12 6 2 1 3 5 1 5 2 1 3 4 7 9 11 12 12 12 12 11 11 10 10 10 10 10 10 11 10 7 5 5 5 6 5 4 6
11 10 8 11 15 13 9 4 5 6 5 2 4 1 5 4 5 4 4 6 9 10 11 10 10 9 9 9 9 10 10 9 9 10 10 9 9 8 9 8 7 5 4 4
10 12 12 10 11 10 3 3 4 5 5 4 4 2 7 7 5 5 7 8 9 10 10 10 11 11 11 11 10 10 11 10 10 10 10 9 10 10 11 10 9 7 5 4
7 9 9 8 11 9 6 9 8 5 5 5 3 4 7 6 3 2 4 6 9 10 10 11 11 12 12 12 11 11 11 10 10 10 9 8 9 7 7 9 8 8 7 7
9 8 7 8 9 10 7 7 10 8 3 1 4 5 7 4 2 2 2 4 7 10 11 11 11 10 10 11 11 11 11 10 10 10 9 8 8 8 8 8 8 7 6 7
11 7 9 7 2 4 9 8 6 6 5 3 4 4 4 3 2 2 3 4 6 8 9 9 10 11 10 10 9 10 10 11 10 11 10 9 8 8 8 7 8 8 8 7
9 7 7 4 1 3 2 3 5 6 6 7 4 6 6 8 7 6 4 5 8 8 9 9 8 9 9 8 9 9 9 9 9 10 9 8 8 7 7 7 7 7 7 8
8 7 5 7 5 2 5 5 6 5 4 5 5 7 3 8 7 5 5 5 7 8 7 7 8 7 7 8 8 9 9 9 9 9 8 8 7 7 7 7 7 7 7 7
6 7 2 6 7 6 3 1 4 6 5 4 4 5 0 4 5 5 6 7 6 8 6 6 6 7 7 7 7 8 9 9 8 8 8 7 7 8 8 7 7 7 7 6
5 5 7 8 6 3 2 1 3 6 4 3 5 5 3 4 6 6 6 7 8 8 8 7 6 6 6 6 7 8 7 7 8 8 7 8 8 8 8 7 7 7 7 6
5 4 3 3 2 1 1 2 1 2 6 7 7 8 9 12 10 8 8 7 8 8 8 8 8 7 7 7 7 7 7 7 8 8 7 7 7 7 7 7 7 7 7 6
5 3 3 4 4 4 3 3 3 1 1 3 3 3 4 5 6 6 7 9 10 9 10 9 8 8 8 8 8 7 7 7 8 8 7 7 7 8 8 9 9 8 8 7
2 4 3 2 4 5 2 2 1 2 2 3 2 3 4 5 6 8 9 9 9 8 9 9 8 8 8 8 9 8 7 7 7 8 7 7 8 8 8 9 9 9 8 8
4 4 3 2 3 2 6 2 5 7 8 6 4 3 5 7 6 5 6 8 7 7 7 7 7 7 7 7 8 8 8 8 8 8 8 7 8 9 9 9 10 10 9 9
6 7 4 4 3 3 3 3 2 5 5 6 5 5 6 8 7 6 4 6 6 5 5 5 7 9 8 9 10 11 10 10 10 9 8 8 9 10 10 11 11 10 11 11
5 6 5 4 4 4 4 5 2 6 3 4 5 5 5 5 4 1 2 6 6 6 6 6 7 9 10 9 10 12 11 10 10 9 9 9 10 11 11 11 11 10 11 12
4 4 4 4 3 3 4 5 3 4 3 2 2 3 4 2 3 5 6 6 6 6 7 8 9 9 8 9 12 13 12 11 10 11 11 11 11 11 11 11 11 11 11 12
2 2 2 3 2 4 5 5 3 3 2 2 3 3 4 5 7 8 8 8 8 8 9 9 10 9 8 9 13 14 12 10 11 13 13 12 11 11 11 12 11 11 11 12
2 3 3 3 4 2 3 4 2 2 3 2 3 4 8 8 7 8 8 8 8 9 10 10 11 11 9 8 11 14 11 11 13 14 13 12 12 11 10 11 11 10 9 9
2 2 3 2 0 2 4 4 4 3 2 1 3 6 8 9 10 10 10 8 9 9 10 11 12 12 11 10 11 12 12 13 15 15 13 11 12 12 11 9 8 8 8 8
2 1 2 0 1 3 4 5 4 3 3 3 3 4 8 11 11 12 11 10 9 10 10 10 11 12 11 11 12 12 12 14 15 14 13 12 12 12 12 11 8 8 6 7
1 2 4 4 3 1 2 3 3 2 2 3 6 6 6 10 12 13 12 11 11 11 12 12 13 12 11 12 12 10 10 13 15 13 11 10 10 10 10 11 11 15 11 14
Wind_Direction
222 178 228 234 225 229 261 278 283 283 282 306 241 252 213 170 151 150 162 165 162 165 170 162 160 160 159 159 161 162 161 160 157 156 152 147 149 151 156 166 158 152 146 144
262 245 236 238 249 256 265 275 281 288 291 355 91 57 235 176 169 165 172 167 165 157 154 164 167 167 167 167 167 167 166 164 164 162 157 154 150 155 161 158 155 158 150 148
219 241 237 239 252 260 266 260 263 269 311 15 76 351 310 276 124 139 155 163 165 164 163 163 169 172 170 171 173 173 169 166 164 155 144 136 117 106 129 155 171 173 157 152
241 247 254 257 259 252 263 261 258 267 319 310 37 263 284 276 83 153 159 159 165 161 162 164 167 174 179 178 174 170 169 167 165 157 155 156 158 163 179 177 174 173 161 153
240 233 230 243 251 250 247 259 260 269 103 22 360 103 291 350 256 231 199 174 175 171 171 177 177 178 180 178 174 170 167 169 168 164 167 167 166 168 164 162 161 167 169 160
248 262 245 240 258 252 254 288 359 40 68 13 284 164 276 250 227 234 211 182 183 175 177 179 171 167 175 174 172 168 169 172 171 168 169 171 170 166 163 167 171 174 172 166
273 272 261 255 266 280 252 102 19 352 3 262 270 206 246 253 236 214 202 199 185 175 173 172 168 169 174 174 173 171 171 175 176 175 175 178 177 171 173 174 178 176 176 184
230 270 252 227 211 219 223 152 163 199 224 261 298 241 260 278 269 205 179 183 172 170 173 177 178 175 176 177 175 173 175 178 179 180 181 180 174 172 177 179 179 182 184 187
204 248 262 249 223 184 198 194 175 151 173 190 277 282 306 337 9 45 88 152 168 173 176 179 178 175 176 177 180 178 177 178 182 183 180 177 174 175 181 181 181 184 184 183
183 242 283 285 281 222 184 174 111 127 161 218 269 261 241 246 233 203 163 174 178 171 169 173 178 178 178 180 180 178 180 183 182 183 184 185 181 181 182 177 182 185 183 175
172 196 284 341 233 223 165 141 130 134 152 156 214 260 223 193 193 181 185 179 170 166 171 171 180 179 175 174 176 179 180 179 181 184 185 181 181 181 178 179 183 180 174 167
172 160 237 263 266 206 155 161 140 151 213 164 171 254 265 173 169 156 159 161 157 150 160 167 165 161 164 175 181 181 179 178 181 180 178 179 176 173 174 178 177 167 162 162
146 130 145 334 342 3 56 126 146 136 125 145 162 252 313 160 151 150 147 141 137 134 139 153 157 156 163 173 178 178 176 177 174 172 175 175 175 172 172 171 161 152 149 146
118 108 154 188 217 247 323 16 115 114 131 193 207 203 210 192 179 172 157 142 137 138 149 156 165 166 166 166 168 174 174 175 171 169 174 174 174 170 163 155 147 142 137 138
82 103 132 179 205 106 14 2 54 148 178 183 211 191 208 199 190 175 160 146 149 155 154 158 166 171 166 163 161 166 172 174 172 168 176 177 163 154 149 144 138 131 130 133
52 93 66 21 31 52 28 1 15 13 134 167 151 215 226 166 150 156 159 153 162 169 165 164 163 161 165 164 160 159 164 168 167 168 170 158 148 142 140 136 131 126 121 112
43 86 76 327 352 47 332 275 73 54 34 126 151 219 147 130 156 168 167 161 163 160 157 159 160 158 161 160 156 156 157 148 142 142 143 143 140 139 138 137 127 122 116 105
142 110 127 126 49 225 245 287 95 84 51 54 79 99 143 147 134 110 124 140 143 145 147 147 143 137 135 134 134 130 126 124 124 123 124 128 127 126 125 122 119 114 107 101
147 140 129 131 169 258 304 355 67 104 52 25 63 75 95 108 83 52 64 113 129 133 125 128 133 128 122 123 124 118 115 115 113 114 114 114 117 117 117 117 114 111 106 99
60 105 123 135 157 213 257 309 338 100 85 3 60 89 108 96 109 183 91 102 108 112 109 108 109 111 114 118 119 115 111 109 109 109 107 105 107 111 113 112 109 106 105 103
26 47 116 147 183 235 281 318 45 110 205 285 91 116 119 108 162 139 115 103 100 99 100 99 99 101 106 111 112 109 108 108 108 106 103 100 98 102 107 107 107 108 105 102
132 106 122 123 162 243 323 38 90 175 195 117 97 114 113 123 122 121 118 111 107 102 99 99 99 98 96 105 112 110 110 111 108 105 101 98 97 102 103 104 105 105 107 104
90 166 173 173 193 234 43 93 114 127 114 92 105 134 139 141 141 131 125 119 111 107 105 105 106 100 91 95 113 116 117 113 107 102 98 95 92 90 94 102 105 104 102 104
347 61 85 54 14 26 42 56 43 54 80 87 139 147 145 147 144 134 127 119 111 104 103 107 107 105 99 97 103 111 113 109 104 101 97 95 93 87 80 80 89 101 104 107
266 75 98 152 318 11 23 26 14 32 61 78 98 127 143 143 140 135 130 123 116 108 104 104 106 108 106 103 102 106 110 111 106 103 100 96 94 95 87 78 68 83 81 113
276 164 161 206 219 201 296 348 11 50 72 108 114 105 116 135 134 128 125 122 118 114 110 105 103 103 102 100 99 100 107 113 113 110 108 107 105 102 102 99 80 55 72 84
Height
1482 1488 1493 1489 1487 1488 1488 1490 1489 1478 1465 1469 1473 1475 1472 1473 1474 1475 1477 1477 1478 1480 1483 1486 1487 1488 1492 1495 1499 1502 1506 1510 1514 1517 1521 1524 1527 1530 1534 1537 1539 1541 1543 1545
1486 1489 1480 1479 1479 1481 1484 1488 1485 1474 1464 1469 1476 1477 1473 1472 1473 1473 1474 1475 1477 1479 1482 1484 1487 1489 1491 1494 1497 1501 1505 1509 1513 1516 1520 1523 1526 1529 1533 1536 1538 1540 1542 1544
1486 1478 1473 1476 1478 1481 1481 1484 1480 1476 1469 1470 1476 1483 1478 1474 1472 1473 1473 1474 1475 1476 1479 1481 1484 1488 1490 1493 1497 1501 1504 1507 1511 1515 1519 1522 1525 1528 1531 1534 1537 1539 1541 1543
1477 1471 1471 1474 1475 1475 1482 1468 1468 1469 1478 1488 1482 1499 1483 1477 1474 1473 1472 1474 1476 1477 1479 1480 1483 1487 1490 1493 1496 1500 1503 1507 1510 1513 1516 1519 1522 1525 1528 1531 1535 1538 1540 1542
1473 1466 1469 1472 1467 1466 1469 1460 1463 1466 1477 1489 1487 1495 1491 1479 1478 1474 1471 1473 1475 1476 1478 1480 1483 1486 1490 1493 1496 1499 1502 1505 1508 1512 1515 1518 1521 1524 1527 1531 1533 1536 1538 1540
1465 1460 1461 1461 1457 1456 1457 1461 1467 1476 1488 1504 1494 1496 1496 1482 1474 1470 1469 1471 1474 1476 1477 1480 1483 1486 1489 1493 1495 1498 1500 1503 1507 1510 1514 1516 1519 1522 1525 1528 1531 1534 1536 1538
1469 1459 1454 1453 1459 1455 1458 1478 1500 1502 1512 1509 1492 1493 1491 1470 1465 1465 1466 1469 1472 1474 1477 1479 1482 1485 1488 1491 1493 1496 1499 1501 1505 1508 1511 1515 1518 1520 1523 1526 1528 1531 1533 1536
1478 1473 1451 1446 1452 1458 1458 1473 1500 1511 1514 1508 1494 1494 1480 1464 1462 1462 1463 1466 1470 1473 1475 1478 1481 1484 1487 1489 1492 1494 1496 1499 1503 1506 1509 1513 1516 1518 1521 1524 1526 1528 1531 1533
1471 1467 1443 1438 1437 1444 1456 1465 1468 1489 1496 1507 1501 1488 1473 1463 1462 1463 1465 1467 1470 1472 1474 1476 1479 1483 1485 1488 1490 1492 1494 1497 1500 1503 1507 1510 1513 1516 1518 1521 1524 1526 1529 1532
1453 1462 1446 1436 1434 1435 1442 1450 1471 1487 1503 1510 1501 1492 1486 1471 1468 1465 1466 1468 1469 1472 1473 1476 1479 1481 1484 1486 1489 1491 1493 1495 1497 1501 1504 1507 1510 1513 1516 1519 1521 1524 1527 1530
1444 1459 1452 1444 1444 1446 1446 1452 1463 1480 1486 1502 1509 1496 1466 1464 1463 1464 1465 1467 1469 1471 1473 1476 1479 1481 1483 1486 1488 1489 1491 1493 1496 1498 1501 1504 1507 1510 1513 1516 1519 1522 1525 1527
1438 1453 1461 1451 1438 1433 1440 1449 1461 1479 1484 1487 1496 1489 1457 1459 1460 1462 1464 1467 1468 1470 1473 1475 1478 1480 1482 1485 1487 1488 1490 1492 1494 1497 1499 1502 1504 1507 1510 1513 1517 1520 1523 1525
1435 1452 1468 1464 1456 1444 1444 1446 1452 1463 1476 1486 1492 1482 1458 1458 1459 1460 1462 1465 1467 1468 1472 1475 1477 1479 1481 1483 1485 1487 1489 1491 1493 1496 1498 1500 1502 1505 1508 1511 1515 1518 1521 1523
1429 1448 1461 1469 1464 1451 1449 1447 1449 1461 1477 1480 1476 1471 1463 1460 1460 1460 1460 1461 1464 1467 1470 1473 1476 1477 1479 1481 1483 1485 1488 1490 1492 1494 1496 1498 1500 1503 1506 1509 1513 1516 1519 1522
1431 1447 1446 1447 1444 1443 1445 1446 1447 1453 1459 1468 1464 1462 1458 1455 1456 1457 1457 1459 1462 1465 1468 1471 1474 1476 1478 1479 1481 1484 1486 1488 1490 1492 1495 1497 1499 1502 1505 1507 1510 1513 1516 1519
1437 1445 1446 1449 1443 1443 1447 1445 1445 1447 1449 1453 1455 1459 1450 1451 1455 1457 1458 1459 1461 1464 1466 1470 1472 1474 1475 1477 1479 1482 1484 1487 1489 1491 1494 1496 1499 1501 1503 1505 1508 1511 1514 1517
1443 1448 1456 1461 1450 1449 1459 1448 1447 1449 1448 1451 1458 1458 1452 1454 1455 1456 1457 1459 1461 1464 1465 1468 1470 1472 1474 1475 1478 1480 1483 1486 1488 1490 1492 1495 1498 1500 1502 1505 1507 1510 1512 1515
1443 1451 1460 1463 1460 1470 1460 1443 1443 1448 1452 1451 1451 1452 1451 1451 1454 1457 1458 1460 1462 1463 1465 1467 1469 1471 1473 1475 1477 1480 1483 1486 1488 1490 1492 1494 1497 1499 1502 1504 1506 1509 1511 1513
1436 1447 1460 1468 1470 1464 1453 1446 1446 1452 1460 1455 1453 1452 1452 1453 1456 1459 1459 1460 1462 1464 1466 1467 1469 1470 1472 1475 1477 1480 1482 1484 1487 1490 1492 1494 1496 1498 1501 1503 1506 1508 1510 1513
1437 1442 1456 1464 1468 1472 1459 1446 1444 1448 1465 1458 1454 1455 1455 1455 1462 1463 1462 1462 1463 1465 1466 1467 1469 1470 1472 1475 1478 1480 1482 1484 1487 1490 1492 1495 1497 1499 1501 1503 1506 1508 1510 1512
1450 1452 1457 1462 1465 1462 1452 1445 1444 1462 1466 1457 1455 1455 1455 1457 1460 1462 1462 1463 1464 1465 1466 1468 1469 1471 1473 1476 1478 1480 1483 1485 1488 1491 1493 1495 1498 1500 1502 1504 1506 1509 1511 1513
1456 1459 1461 1463 1467 1466 1450 1448 1454 1458 1455 1454 1454 1455 1456 1457 1459 1460 1462 1463 1464 1465 1467 1469 1471 1472 1475 1477 1479 1481 1484 1487 1489 1492 1494 1496 1499 1501 1504 1505 1508 1510 1512 1514
1453 1456 1458 1460 1462 1456 1452 1452 1453 1453 1453 1453 1453 1454 1455 1458 1459 1461 1463 1465 1466 1467 1467 1470 1473 1475 1477 1479 1481 1482 1485 1488 1490 1493 1495 1498 1501 1503 1506 1508 1510 1513 1515 1516
1452 1450 1454 1457 1455 1454 1453 1452 1452 1452 1452 1452 1452 1452 1453 1456 1458 1460 1463 1465 1467 1468 1469 1471 1474 1476 1479 1481 1484 1486 1488 1490 1492 1494 1498 1501 1503 1505 1508 1511 1514 1515 1517 1519
1453 1452 1455 1457 1455 1453 1452 1452 1452 1451 1451 1451 1452 1452 1452 1454 1457 1460 1462 1465 1467 1469 1471 1473 1476 1479 1482 1484 1486 1488 1491 1493 1495 1498 1501 1504 1506 1509 1512 1514 1517 1519 1520 1522
1452 1453 1455 1457 1454 1455 1454 1452 1451 1450 1449 1449 1450 1451 1453 1454 1456 1459 1463 1466 1469 1471 1473 1476 1479 1482 1485 1487 1489 1492 1494 1496 1498 1501 1504 1507 1510 1512 1515 1516 1519 1522 1523 1525